Wind_Speed
33 33 32 31 32 32 33 33 33 33 33 33 33 33 32 31 31 30 30 31 32 32 31 30 30 29 29 28 27 27 26 26 25 24 24 23 23 22 22 22 21 21 21
35 35 34 33 34 34 34 34 35 35 35 35 35 35 34 34 33 34 33 33 33 34 33 32 32 30 30 30 29 28 28 28 27 27 26 26 25 25 24 23 24 23 23
37 37 36 36 36 36 37 36 36 36 37 37 37 37 37 37 36 36 35 34 34 34 35 35 34 33 32 32 31 31 31 30 29 29 28 28 28 27 27 26 26 25 25
38 38 38 37 38 38 39 38 38 38 39 40 40 40 40 39 38 38 38 37 37 36 36 37 37 36 36 35 34 33 33 32 32 31 31 30 30 29 29 29 28 28 28
40 40 40 40 39 40 40 41 40 40 41 41 42 42 42 42 42 42 41 40 39 39 39 39 40 39 38 37 37 36 35 35 34 34 33 33 32 31 31 31 31 30 30
42 42 42 41 42 42 42 42 42 42 42 42 43 43 44 43 44 44 44 43 42 42 41 41 41 41 40 40 39 38 37 37 36 36 36 35 35 34 33 33 33 32 32
45 45 44 44 44 44 45 45 45 44 44 44 44 44 45 44 44 44 45 45 45 44 43 43 43 43 42 41 41 41 39 38 38 37 38 37 36 36 36 35 35 35 35
47 47 46 47 46 46 47 47 47 48 47 46 46 46 45 45 45 46 46 45 46 46 45 44 44 45 44 43 43 42 42 42 41 40 40 40 39 39 38 37 37 37 38
49 49 48 48 48 48 48 49 50 50 49 48 48 47 47 46 46 47 48 47 47 47 47 46 46 45 46 45 45 44 44 44 44 43 43 42 42 41 40 39 39 39 39
51 51 51 51 51 51 51 51 51 51 51 51 50 50 50 49 49 48 49 49 49 49 49 48 47 47 47 47 47 46 46 46 45 45 45 45 44 43 43 42 42 41 40
54 54 53 53 53 53 54 54 53 53 54 54 53 52 51 51 50 50 50 51 51 51 51 50 50 50 49 49 49 49 48 48 48 47 47 47 46 46 45 45 44 43 43
55 55 55 56 56 55 55 55 56 55 55 55 55 54 53 52 51 52 52 52 53 52 52 51 52 52 51 51 51 50 50 50 50 49 49 49 48 47 47 47 46 46 45
55 56 57 57 57 57 56 56 56 55 55 56 56 55 54 54 53 53 53 53 54 54 53 52 52 52 52 53 52 52 52 51 52 51 51 50 50 50 49 49 48 48 48
56 56 57 57 57 57 57 57 56 55 55 56 56 56 56 56 56 55 55 54 54 55 55 54 53 54 54 54 53 53 53 53 53 53 53 53 52 53 52 51 51 50 50
55 56 57 57 57 57 57 57 57 57 57 56 57 57 57 57 56 56 57 56 56 56 56 55 55 55 55 56 55 54 55 55 55 55 55 55 55 55 54 54 53 53 53
55 55 56 56 57 57 58 58 58 58 58 57 57 57 57 57 57 57 57 58 58 58 57 56 56 56 57 58 57 56 57 57 56 56 56 56 56 56 56 55 55 55 54
56 55 55 56 57 57 58 58 58 58 58 58 58 59 58 59 59 60 59 59 59 59 59 58 58 57 57 58 59 59 58 58 58 58 58 57 57 58 57 57 57 57 56
55 56 56 56 57 57 58 58 58 58 58 58 59 60 60 60 60 60 60 61 61 62 62 61 60 60 59 59 60 59 60 60 60 60 60 60 60 59 59 59 59 59 59
54 54 55 56 56 56 57 57 58 59 59 59 59 60 60 60 60 61 61 62 62 63 64 63 62 61 61 61 61 60 60 61 62 62 62 62 62 62 61 60 60 60 60
53 53 53 54 54 54 54 55 55 57 58 59 59 59 59 60 60 61 61 61 63 64 65 65 63 62 62 62 62 62 62 62 62 62 63 63 64 63 63 62 62 61 62
52 52 51 51 52 52 52 52 53 54 56 57 58 58 58 59 60 60 61 61 62 63 64 64 63 63 63 63 63 63 63 63 63 63 63 64 64 64 64 64 64 62 62
50 50 50 50 51 51 52 52 52 53 55 56 57 57 57 58 58 59 60 61 61 61 62 63 63 63 63 62 63 63 63 63 63 64 64 65 65 65 65 65 64 63 63
48 49 49 49 50 50 51 52 53 53 53 54 55 56 57 57 57 57 58 59 60 60 61 61 61 61 61 63 63 64 63 63 63 63 64 64 63 63 64 64 64 64 64
47 47 47 47 48 49 50 51 53 53 53 53 53 54 54 55 56 56 55 55 56 57 59 59 58 58 59 60 60 61 61 61 61 61 61 61 61 61 61 62 63 64 64
45 45 45 45 46 47 49 50 51 52 52 51 51 52 53 52 53 53 53 53 54 55 57 56 56 56 56 57 57 57 58 59 58 58 58 59 59 59 59 59 60 61 62
43 44 44 44 45 45 46 47 49 50 51 50 50 50 51 51 50 51 52 52 52 53 55 55 54 55 55 55 54 54 55 56 57 56 56 58 58 59 59 59 59 60 60
Wind_Direction
258 257 257 258 258 256 254 253 253 254 254 255 255 255 254 253 254 254 253 252 252 252 252 252 252 252 252 253 255 256 257 259 260 262 263 262 262 264 264 266 269 270 270
259 258 258 258 258 257 256 255 254 255 255 255 255 255 254 254 254 254 254 254 254 253 253 253 254 254 253 254 255 257 257 258 259 261 262 263 262 264 265 267 268 269 271
261 260 259 259 258 258 257 255 256 256 257 256 256 256 255 255 256 255 255 255 255 255 254 254 255 256 256 255 256 257 258 257 257 259 260 262 263 263 264 266 268 269 270
261 262 261 261 260 259 258 256 257 257 257 256 256 257 257 256 256 256 256 255 255 255 255 255 255 256 257 257 256 258 258 258 258 258 259 260 262 263 264 265 266 267 268
262 263 263 263 262 261 259 257 257 258 258 257 257 257 258 257 255 255 255 256 255 255 255 255 255 256 257 258 258 258 258 259 259 259 259 259 260 262 264 265 265 266 267
262 263 263 264 263 262 260 259 259 259 259 259 258 257 258 258 257 255 254 255 255 255 255 255 256 256 256 257 258 258 257 258 259 260 259 260 261 262 264 265 265 265 266
262 262 262 263 263 262 261 261 261 261 261 260 259 259 258 257 256 255 255 254 254 255 255 255 255 256 256 257 257 258 258 259 259 260 260 260 261 262 264 265 266 265 265
262 263 263 264 264 263 262 262 262 261 261 261 260 259 258 257 256 256 255 254 253 254 253 254 255 256 257 257 257 258 258 259 259 260 261 261 262 263 263 264 266 266 265
262 262 263 263 264 264 263 263 262 262 262 261 261 260 260 258 257 256 255 254 254 253 253 254 255 255 256 257 257 257 258 259 260 260 261 261 262 262 263 264 265 266 265
262 262 263 263 264 264 264 263 263 262 262 262 261 261 261 260 259 257 255 254 253 252 253 254 255 255 256 257 258 258 259 259 260 260 261 261 261 262 262 263 265 264 265
262 262 263 263 264 265 264 264 264 263 262 262 262 261 261 261 261 259 255 253 253 253 252 253 254 255 256 257 258 259 260 260 260 260 260 261 261 262 262 262 263 263 264
262 263 263 263 264 264 264 264 264 263 263 262 262 261 261 261 260 260 258 254 253 252 252 253 254 255 256 257 258 259 260 260 260 260 260 261 260 261 262 262 263 263 263
263 263 264 264 264 264 264 264 263 262 262 262 262 261 261 260 260 260 259 256 253 252 251 252 253 254 255 257 258 259 259 260 260 260 260 260 259 260 261 262 262 263 264
264 264 264 264 264 263 263 263 262 262 262 261 261 261 261 261 260 260 259 258 255 253 252 252 253 254 255 256 257 258 259 260 260 259 259 260 260 260 261 261 262 263 264
264 264 264 264 264 263 263 263 263 262 262 262 262 261 261 261 261 260 260 259 257 255 253 254 255 254 255 255 256 258 259 260 260 260 259 260 260 261 261 261 262 262 263
265 265 264 264 263 263 263 262 263 264 263 262 262 262 261 260 261 261 260 259 258 257 254 254 256 255 256 256 257 258 258 259 259 260 260 260 261 261 261 262 263 263 263
265 265 264 263 263 263 263 262 263 263 262 262 262 262 262 261 261 261 260 259 259 258 255 255 255 255 256 257 258 258 258 259 260 260 261 261 262 261 262 262 263 263 263
266 266 265 265 264 263 263 262 262 262 262 262 263 262 262 262 261 261 260 259 259 258 256 255 256 256 256 257 258 258 259 259 260 260 261 262 262 262 263 263 263 263 263
265 266 267 266 265 263 263 262 262 262 262 262 263 263 262 262 262 262 260 260 259 258 257 256 256 256 256 256 257 258 259 260 260 260 262 263 263 263 263 263 263 263 263
265 266 267 266 265 264 263 262 262 261 262 263 263 263 262 262 262 262 261 260 259 258 257 256 256 257 256 256 258 259 259 260 260 261 261 262 263 263 263 263 264 263 263
265 266 266 266 265 264 263 263 262 262 263 263 263 263 263 263 263 262 262 261 260 259 257 256 257 257 256 257 257 259 260 260 260 261 261 262 263 263 263 264 263 263 263
265 266 266 265 265 265 264 264 263 263 263 263 263 263 263 263 263 263 263 261 260 259 257 256 257 257 258 258 257 259 260 260 261 261 261 262 262 263 263 263 263 262 262
265 265 266 266 266 265 265 265 264 264 265 264 264 263 263 263 263 263 263 261 260 259 257 257 257 258 258 258 258 259 259 261 261 261 261 262 262 262 263 263 261 261 261
265 267 268 268 268 267 266 266 265 264 264 264 264 264 263 263 262 262 262 261 260 259 257 256 257 258 258 258 258 259 259 260 260 261 261 262 262 262 263 263 262 261 261
267 268 269 269 269 269 268 266 265 264 264 264 263 263 262 262 261 261 261 261 261 259 257 256 257 258 258 257 258 258 258 259 260 261 262 262 263 264 263 263 263 262 261
268 269 269 270 270 270 269 267 266 264 264 264 263 263 262 261 261 261 261 262 262 260 258 257 257 258 258 258 257 257 259 260 261 262 262 263 264 265 265 264 264 263 262
Height
5776 5777 5778 5779 5781 5782 5784 5786 5787 5789 5791 5792 5793 5795 5796 5798 5799 5801 5803 5804 5806 5807 5809 5811 5812 5814 5815 5817 5818 5820 5821 5822 5823 5824 5825 5826 5827 5828 5828 5828 5829 5829 5830
5768 5769 5771 5772 5773 5774 5775 5777 5779 5781 5783 5784 5785 5787 5788 5790 5792 5794 5795 5797 5799 5800 5802 5804 5805 5807 5809 5810 5812 5813 5815 5816 5817 5818 5819 5820 5821 5822 5823 5823 5824 5824 5825
5760 5761 5762 5763 5764 5766 5767 5769 5771 5772 5774 5776 5777 5779 5780 5782 5783 5785 5787 5789 5791 5793 5794 5796 5798 5799 5801 5803 5805 5806 5808 5809 5810 5811 5812 5813 5814 5815 5817 5817 5818 5819 5819
5751 5752 5753 5754 5755 5756 5758 5760 5761 5763 5765 5766 5768 5770 5771 5773 5774 5776 5778 5780 5782 5785 5786 5788 5790 5792 5793 5795 5797 5798 5800 5801 5803 5804 5805 5806 5807 5808 5809 5810 5812 5812 5813
5741 5742 5743 5744 5745 5746 5748 5750 5751 5753 5755 5756 5758 5760 5761 5763 5765 5766 5768 5770 5773 5775 5777 5779 5781 5783 5785 5787 5788 5790 5792 5793 5795 5796 5797 5799 5800 5801 5802 5803 5804 5805 5806
5730 5732 5733 5733 5735 5736 5737 5739 5740 5742 5744 5745 5747 5749 5750 5752 5753 5755 5758 5760 5762 5765 5767 5769 5772 5773 5776 5777 5779 5781 5783 5784 5786 5787 5789 5790 5791 5793 5793 5795 5796 5797 5798
5719 5720 5722 5722 5723 5725 5726 5727 5729 5730 5732 5734 5735 5737 5739 5740 5742 5744 5746 5748 5751 5754 5756 5759 5761 5763 5765 5768 5769 5771 5773 5775 5776 5778 5780 5781 5782 5784 5785 5786 5787 5788 5789
5707 5708 5710 5711 5712 5713 5714 5715 5717 5718 5720 5721 5723 5724 5727 5729 5730 5732 5734 5737 5739 5742 5745 5747 5750 5752 5755 5757 5759 5761 5763 5765 5766 5768 5770 5771 5773 5774 5775 5776 5777 5778 5779
5695 5696 5697 5699 5699 5700 5701 5702 5704 5705 5707 5709 5710 5711 5713 5716 5717 5720 5721 5724 5726 5729 5732 5735 5738 5740 5743 5746 5748 5750 5752 5754 5756 5757 5759 5761 5762 5764 5765 5766 5767 5768 5769
5682 5683 5684 5685 5686 5687 5688 5689 5690 5692 5693 5695 5697 5698 5699 5701 5703 5706 5708 5711 5713 5716 5719 5723 5725 5728 5731 5734 5736 5738 5740 5742 5744 5746 5747 5749 5751 5752 5754 5755 5757 5758 5759
5668 5669 5670 5671 5672 5673 5674 5675 5676 5677 5679 5680 5682 5683 5685 5686 5688 5690 5694 5697 5699 5703 5706 5709 5712 5715 5718 5721 5723 5726 5728 5730 5732 5734 5735 5737 5739 5740 5742 5744 5745 5746 5747
5653 5654 5655 5656 5657 5658 5659 5660 5661 5662 5663 5665 5667 5668 5670 5672 5673 5675 5678 5681 5684 5688 5691 5695 5698 5701 5704 5707 5710 5712 5714 5716 5718 5720 5722 5724 5726 5728 5730 5731 5733 5734 5735
5638 5639 5639 5640 5641 5642 5643 5644 5645 5647 5648 5649 5651 5653 5655 5656 5658 5660 5662 5665 5669 5673 5676 5681 5684 5687 5690 5693 5695 5698 5700 5702 5704 5707 5709 5711 5713 5715 5717 5718 5720 5721 5723
5622 5622 5623 5624 5625 5626 5627 5629 5630 5631 5633 5634 5636 5637 5639 5641 5643 5645 5647 5650 5653 5657 5661 5666 5669 5672 5675 5678 5680 5683 5686 5688 5690 5692 5694 5696 5698 5700 5702 5704 5706 5708 5710
5605 5606 5607 5608 5609 5610 5611 5613 5614 5615 5617 5618 5619 5621 5623 5625 5627 5629 5632 5634 5638 5641 5646 5650 5653 5656 5659 5662 5666 5668 5670 5673 5675 5677 5679 5681 5683 5685 5688 5690 5692 5694 5695
5588 5589 5590 5591 5592 5593 5594 5596 5597 5599 5600 5602 5603 5605 5607 5609 5611 5613 5616 5619 5621 5625 5630 5635 5637 5639 5642 5646 5649 5652 5654 5657 5660 5662 5664 5666 5668 5670 5672 5675 5676 5678 5680
5572 5572 5573 5574 5575 5576 5577 5579 5580 5582 5583 5584 5586 5588 5590 5592 5594 5596 5599 5602 5605 5608 5613 5618 5620 5623 5626 5629 5632 5635 5638 5641 5643 5645 5648 5650 5652 5654 5656 5658 5660 5662 5664
5555 5556 5556 5557 5558 5559 5560 5561 5563 5565 5566 5567 5569 5570 5572 5574 5577 5579 5582 5585 5588 5591 5595 5600 5604 5606 5609 5612 5615 5618 5621 5624 5626 5628 5631 5633 5635 5637 5639 5641 5643 5645 5647
5539 5540 5540 5540 5541 5542 5543 5544 5546 5547 5549 5550 5551 5553 5555 5557 5559 5562 5564 5567 5570 5573 5576 5581 5586 5589 5592 5595 5598 5600 5603 5606 5609 5611 5613 5615 5617 5619 5621 5623 5625 5628 5630
5524 5524 5524 5524 5525 5525 5526 5528 5529 5530 5532 5533 5535 5536 5537 5539 5541 5544 5546 5549 5552 5555 5558 5561 5566 5570 5573 5576 5579 5582 5586 5589 5591 5593 5595 5597 5599 5601 5603 5605 5608 5610 5612
5508 5508 5509 5509 5509 5510 5511 5512 5513 5514 5516 5517 5518 5519 5520 5522 5524 5525 5528 5531 5533 5536 5539 5543 5547 5550 5554 5557 5561 5563 5566 5569 5572 5574 5576 5579 5580 5582 5584 5586 5588 5590 5593
5493 5494 5494 5494 5495 5495 5496 5497 5498 5499 5500 5501 5502 5503 5504 5505 5506 5508 5510 5512 5515 5518 5521 5524 5528 5532 5535 5538 5541 5543 5546 5550 5554 5557 5557 5559 5560 5563 5565 5567 5569 5571 5573
5479 5479 5480 5480 5481 5481 5481 5482 5483 5483 5485 5485 5486 5487 5488 5489 5490 5491 5493 5495 5497 5500 5503 5507 5510 5513 5517 5520 5523 5526 5528 5530 5533 5536 5537 5540 5542 5543 5545 5547 5549 5551 5553
5465 5465 5466 5466 5466 5467 5466 5467 5467 5468 5469 5470 5470 5471 5472 5473 5474 5475 5477 5478 5480 5483 5486 5489 5494 5497 5498 5500 5504 5507 5509 5511 5514 5516 5518 5521 5523 5524 5526 5528 5530 5532 5534
5451 5452 5452 5452 5452 5452 5452 5452 5452 5453 5453 5454 5455 5455 5456 5457 5459 5460 5461 5463 5465 5467 5469 5473 5476 5479 5481 5483 5486 5488 5491 5494 5496 5499 5500 5502 5504 5505 5508 5510 5511 5512 5514
5438 5438 5438 5438 5438 5437 5437 5437 5437 5438 5438 5439 5440 5440 5441 5442 5443 5444 5446 5447 5449 5452 5454 5457 5460 5462 5464 5466 5469 5471 5474 5476 5479 5482 5483 5484 5486 5487 5490 5493 5493 5494 5496